Time,TemperatureF,DewpointF,PressureIn,WindDirection,WindDirectionDegrees,WindSpeedMPH,WindSpeedGustMPH,Humidity,HourlyPrecipIn,Conditions,Clouds,dailyrainin,SoftwareType,DateUTC
2013-02-11 00:00:00,52.6,51.5,30.08,NNW,345,0.0,0.0,96,0.00,CLR,,0.59,WeatherDisplay:10.37,2013-02-11 06:00:00,
2013-02-11 00:05:00,52.6,51.5,30.08,NNW,345,0.0,0.0,96,0.00,RA,,0.00,WeatherDisplay:10.37,2013-02-11 06:05:00,
2013-02-11 00:10:00,52.6,51.5,30.08,NNW,345,0.0,0.0,96,0.00,RA,,0.00,WeatherDisplay:10.37,2013-02-11 06:10:00,
2013-02-11 00:15:00,52.6,51.5,30.08,NNW,345,0.0,0.0,96,0.00,CLR,,0.00,WeatherDisplay:10.37,2013-02-11 06:15:00,
2013-02-11 00:20:00,52.9,51.8,30.09,NNW,345,0.0,0.0,96,0.00,CLR,,0.00,WeatherDisplay:10.37,2013-02-11 06:20:00,
2013-02-11 00:25:00,53.1,52.0,30.10,NNW,345,0.0,0.0,96,0.00,CLR,,0.00,WeatherDisplay:10.37,2013-02-11 06:25:00,
2013-02-11 00:30:00,53.1,52.0,30.10,NNW,345,0.0,0.0,96,0.00,CLR,,0.00,WeatherDisplay:10.37,2013-02-11 06:30:00,
2013-02-11 00:35:00,53.3,52.2,30.11,NNW,345,0.0,0.0,96,0.00,CLR,,0.00,WeatherDisplay:10.37,2013-02-11 06:35:00,
2013-02-11 00:40:00,53.8,52.7,30.11,NNW,345,1.1,1.1,96,0.00,CLR,,0.00,WeatherDisplay:10.37,2013-02-11 06:40:00,
2013-02-11 00:45:00,53.9,52.8,30.11,NNW,345,0.0,0.0,96,0.00,CLR,,0.00,WeatherDisplay:10.37,2013-02-11 06:45:00,
2013-02-11 00:50:00,54.1,53.0,30.10,NNW,345,0.0,0.0,96,0.00,CLR,,0.00,WeatherDisplay:10.37,2013-02-11 06:50:00,
2013-02-11 00:55:00,54.1,53.0,30.09,NNW,345,1.1,1.1,96,0.00,CLR,,0.00,WeatherDisplay:10.37,2013-02-11 06:55:00,
2013-02-11 01:00:00,54.1,53.0,30.10,NNW,345,0.0,0.0,96,0.01,RA,,0.01,WeatherDisplay:10.37,2013-02-11 07:00:00,
2013-02-11 01:05:00,54.1,53.0,30.10,NNW,345,0.0,0.0,96,0.01,RA,,0.01,WeatherDisplay:10.37,2013-02-11 07:05:00,
2013-02-11 01:10:00,53.9,52.8,30.11,NNW,345,0.0,0.0,96,0.01,CLR,,0.01,WeatherDisplay:10.37,2013-02-11 07:10:00,
2013-02-11 01:15:00,53.9,52.8,30.12,NNW,345,0.0,0.0,96,0.01,CLR,,0.01,WeatherDisplay:10.37,2013-02-11 07:15:00,
2013-02-11 01:20:00,53.9,52.8,30.11,NNW,345,0.0,0.0,96,0.01,CLR,,0.01,WeatherDisplay:10.37,2013-02-11 07:20:00,
2013-02-11 01:25:00,53.8,52.7,30.11,NNW,345,0.0,0.0,96,0.01,CLR,,0.01,WeatherDisplay:10.37,2013-02-11 07:25:00,
2013-02-11 01:30:00,53.6,52.5,30.12,NNW,345,0.0,0.0,96,0.01,CLR,,0.01,WeatherDisplay:10.37,2013-02-11 07:30:00,
2013-02-11 01:35:00,53.6,52.5,30.12,NNW,345,0.0,0.0,96,0.01,CLR,,0.01,WeatherDisplay:10.37,2013-02-11 07:35:00,
2013-02-11 01:40:00,53.6,52.5,30.12,NNW,345,0.0,0.0,96,0.01,CLR,,0.01,WeatherDisplay:10.37,2013-02-11 07:40:00,
2013-02-11 01:45:00,53.5,52.4,30.12,NNW,345,0.0,0.0,96,0.01,CLR,,0.01,WeatherDisplay:10.37,2013-02-11 07:45:00,
2013-02-11 01:50:00,53.5,52.4,30.12,NNW,345,0.0,0.0,96,0.01,CLR,,0.01,WeatherDisplay:10.37,2013-02-11 07:50:00,
2013-02-11 01:55:00,53.5,52.4,30.12,NNW,345,0.0,0.0,96,0.01,CLR,,0.01,WeatherDisplay:10.37,2013-02-11 07:55:00,
2013-02-11 02:00:00,53.5,52.4,30.12,NNW,345,0.0,0.0,96,0.00,CLR,,0.01,WeatherDisplay:10.37,2013-02-11 08:00:00,
2013-02-11 02:05:00,53.6,52.5,30.12,NNW,345,0.0,0.0,96,0.00,CLR,,0.02,WeatherDisplay:10.37,2013-02-11 08:05:00,
2013-02-11 02:10:00,53.8,52.7,30.12,NNW,345,0.0,0.0,96,0.01,RA,,0.02,WeatherDisplay:10.37,2013-02-11 08:10:00,
2013-02-11 02:15:00,53.9,52.8,30.13,NNW,345,0.0,0.0,96,0.01,RA,,0.02,WeatherDisplay:10.37,2013-02-11 08:15:00,
2013-02-11 02:20:00,53.9,52.8,30.12,NNW,345,0.0,0.0,96,0.01,CLR,,0.02,WeatherDisplay:10.37,2013-02-11 08:20:00,
2013-02-11 02:25:00,53.9,52.8,30.14,NNW,345,1.0,1.0,96,0.01,CLR,,0.02,WeatherDisplay:10.37,2013-02-11 08:25:00,
2013-02-11 02:30:00,53.9,52.8,30.14,NNW,345,0.0,0.0,96,0.01,CLR,,0.02,WeatherDisplay:10.37,2013-02-11 08:30:00,
2013-02-11 02:35:00,53.9,52.8,30.13,NNW,345,0.0,0.0,96,0.01,CLR,,0.02,WeatherDisplay:10.37,2013-02-11 08:35:00,
2013-02-11 02:40:00,53.9,52.8,30.12,NNW,345,0.0,0.0,96,0.01,CLR,,0.02,WeatherDisplay:10.37,2013-02-11 08:40:00,
2013-02-11 02:45:00,53.8,52.7,30.11,NNW,345,0.0,0.0,96,0.01,CLR,,0.02,WeatherDisplay:10.37,2013-02-11 08:45:00,
2013-02-11 02:50:00,53.6,52.5,30.12,NNW,345,0.0,0.0,96,0.01,CLR,,0.02,WeatherDisplay:10.37,2013-02-11 08:50:00,
2013-02-11 02:55:00,53.6,52.5,30.12,NNW,345,0.0,0.0,96,0.01,CLR,,0.02,WeatherDisplay:10.37,2013-02-11 08:55:00,
2013-02-11 03:00:00,53.6,52.5,30.12,NNW,345,0.0,0.0,96,0.01,CLR,,0.02,WeatherDisplay:10.37,2013-02-11 09:00:00,
2013-02-11 03:05:00,53.5,52.4,30.12,NNW,345,0.0,0.0,96,0.01,CLR,,0.02,WeatherDisplay:10.37,2013-02-11 09:05:00,
2013-02-11 03:10:00,53.5,52.4,30.12,NNW,345,0.0,0.0,96,0.00,CLR,,0.02,WeatherDisplay:10.37,2013-02-11 09:10:00,
2013-02-11 03:15:00,53.5,52.4,30.11,NNW,345,0.0,0.0,96,0.00,CLR,,0.02,WeatherDisplay:10.37,2013-02-11 09:15:00,
2013-02-11 03:20:00,53.5,52.4,30.12,NNW,345,0.0,0.0,96,0.00,CLR,,0.02,WeatherDisplay:10.37,2013-02-11 09:20:00,
2013-02-11 03:25:00,53.6,52.5,30.12,NNW,345,1.1,1.1,96,0.00,CLR,,0.02,WeatherDisplay:10.37,2013-02-11 09:25:00,
2013-02-11 03:30:00,53.8,52.7,30.11,NNW,345,0.0,0.0,96,0.00,CLR,,0.02,WeatherDisplay:10.37,2013-02-11 09:30:00,
2013-02-11 03:35:00,53.8,52.7,30.11,NNW,345,0.0,0.0,96,0.00,CLR,,0.02,WeatherDisplay:10.37,2013-02-11 09:35:00,
2013-02-11 03:40:00,53.9,52.8,30.11,NNW,345,0.0,0.0,96,0.00,CLR,,0.02,WeatherDisplay:10.37,2013-02-11 09:40:00,
2013-02-11 03:45:00,53.9,52.8,30.12,NNW,345,0.0,0.0,96,0.01,RA,,0.03,WeatherDisplay:10.37,2013-02-11 09:45:00,
2013-02-11 03:50:00,53.9,52.8,30.12,NNW,345,0.0,0.0,96,0.01,RA,,0.03,WeatherDisplay:10.37,2013-02-11 09:50:00,
2013-02-11 03:55:00,53.9,52.8,30.11,NNW,345,0.0,0.0,96,0.01,CLR,,0.03,WeatherDisplay:10.37,2013-02-11 09:55:00,
2013-02-11 04:00:00,53.9,52.8,30.12,NNW,345,0.0,0.0,96,0.01,CLR,,0.03,WeatherDisplay:10.37,2013-02-11 10:00:00,
2013-02-11 04:05:00,53.8,52.7,30.11,NNW,345,0.0,0.0,96,0.01,CLR,,0.03,WeatherDisplay:10.37,2013-02-11 10:05:00,
2013-02-11 04:10:00,53.8,52.7,30.11,NNW,345,0.0,0.0,96,0.01,CLR,,0.03,WeatherDisplay:10.37,2013-02-11 10:10:00,
2013-02-11 04:15:00,53.8,52.7,30.12,NNW,345,0.0,0.0,96,0.01,CLR,,0.03,WeatherDisplay:10.37,2013-02-11 10:15:00,
2013-02-11 04:20:00,53.8,52.7,30.12,NNW,345,0.0,0.0,96,0.01,CLR,,0.03,WeatherDisplay:10.37,2013-02-11 10:20:00,
2013-02-11 04:25:00,53.8,52.7,30.12,NNW,345,0.0,0.0,96,0.01,CLR,,0.03,WeatherDisplay:10.37,2013-02-11 10:25:00,
2013-02-11 04:30:00,53.8,52.7,30.12,NNW,345,0.0,0.0,96,0.01,CLR,,0.03,WeatherDisplay:10.37,2013-02-11 10:30:00,
2013-02-11 04:35:00,53.8,52.7,30.12,NNW,345,0.0,0.0,96,0.01,CLR,,0.03,WeatherDisplay:10.37,2013-02-11 10:35:00,
2013-02-11 04:40:00,53.6,52.5,30.12,NNW,345,0.0,0.0,96,0.01,CLR,,0.03,WeatherDisplay:10.37,2013-02-11 10:40:00,
2013-02-11 04:45:00,53.5,52.4,30.12,NNW,345,0.0,0.0,96,0.00,CLR,,0.03,WeatherDisplay:10.37,2013-02-11 10:45:00,
2013-02-11 04:50:00,53.5,52.4,30.12,NNW,345,0.0,0.0,96,0.00,CLR,,0.03,WeatherDisplay:10.37,2013-02-11 10:50:00,
2013-02-11 04:55:00,53.5,52.4,30.12,NNW,345,0.0,0.0,96,0.00,CLR,,0.03,WeatherDisplay:10.37,2013-02-11 10:55:00,
2013-02-11 05:00:00,53.3,52.2,30.12,NNW,345,0.0,0.0,96,0.00,CLR,,0.03,WeatherDisplay:10.37,2013-02-11 11:00:00,
2013-02-11 05:05:00,53.5,52.4,30.12,NNW,345,0.0,0.0,96,0.00,CLR,,0.03,WeatherDisplay:10.37,2013-02-11 11:05:00,
2013-02-11 05:10:00,53.5,52.4,30.12,NNW,345,0.0,0.0,96,0.00,CLR,,0.03,WeatherDisplay:10.37,2013-02-11 11:10:00,
2013-02-11 05:15:00,53.5,52.4,30.13,NNW,345,0.0,0.0,96,0.00,CLR,,0.03,WeatherDisplay:10.37,2013-02-11 11:15:00,
2013-02-11 05:20:00,53.5,52.4,30.13,NNW,345,0.0,0.0,96,0.00,CLR,,0.03,WeatherDisplay:10.37,2013-02-11 11:20:00,
2013-02-11 05:25:00,53.3,52.2,30.13,NNW,345,0.0,0.0,96,0.00,CLR,,0.03,WeatherDisplay:10.37,2013-02-11 11:25:00,
2013-02-11 05:30:00,53.5,52.4,30.13,NNW,345,0.0,0.0,96,0.00,CLR,,0.03,WeatherDisplay:10.37,2013-02-11 11:30:00,
2013-02-11 05:35:00,53.6,52.5,30.13,NNW,345,0.0,0.0,96,0.00,CLR,,0.03,WeatherDisplay:10.37,2013-02-11 11:35:00,
2013-02-11 05:40:00,53.6,52.5,30.13,NNW,345,0.0,0.0,96,0.00,CLR,,0.03,WeatherDisplay:10.37,2013-02-11 11:40:00,
2013-02-11 05:45:00,53.6,52.5,30.13,NNW,345,0.0,0.0,96,0.00,CLR,,0.03,WeatherDisplay:10.37,2013-02-11 11:45:00,
2013-02-11 05:50:00,53.8,52.7,30.13,NNW,345,1.1,0.0,96,0.00,CLR,,0.03,WeatherDisplay:10.37,2013-02-11 11:50:00,
2013-02-11 05:55:00,53.9,52.8,30.14,NNW,345,0.0,0.0,96,0.00,CLR,,0.03,WeatherDisplay:10.37,2013-02-11 11:55:00,
2013-02-11 06:00:00,53.9,52.8,30.13,NNW,345,0.0,0.0,96,0.00,CLR,,0.03,WeatherDisplay:10.37,2013-02-11 12:00:00,
2013-02-11 06:05:00,53.9,52.8,30.13,NNW,345,0.0,0.0,96,0.00,CLR,,0.03,WeatherDisplay:10.37,2013-02-11 12:05:00,
2013-02-11 06:10:00,53.9,52.8,30.13,NNW,345,0.0,0.0,96,0.00,CLR,,0.03,WeatherDisplay:10.37,2013-02-11 12:10:00,
2013-02-11 06:15:00,53.9,52.8,30.14,NNW,345,1.1,0.0,96,0.00,CLR,,0.03,WeatherDisplay:10.37,2013-02-11 12:15:00,
2013-02-11 06:20:00,53.9,52.8,30.15,NNW,345,0.0,0.0,96,0.00,CLR,,0.03,WeatherDisplay:10.37,2013-02-11 12:20:00,
2013-02-11 06:25:00,53.9,52.8,30.15,NNW,345,2.3,2.3,96,0.00,CLR,,0.03,WeatherDisplay:10.37,2013-02-11 12:25:00,
2013-02-11 06:30:00,53.9,52.8,30.15,NNW,345,2.3,2.3,96,0.00,CLR,,0.03,WeatherDisplay:10.37,2013-02-11 12:30:00,
2013-02-11 06:35:00,53.9,52.8,30.15,WSW,237,0.0,0.1,96,0.00,CLR,,0.03,WeatherDisplay:10.37,2013-02-11 12:35:00,
2013-02-11 06:40:00,53.9,52.8,30.16,SW,235,1.0,1.0,96,0.00,CLR,,0.03,WeatherDisplay:10.37,2013-02-11 12:40:00,
2013-02-11 06:45:00,53.9,52.8,30.16,SW,235,0.0,0.0,96,0.00,CLR,,0.03,WeatherDisplay:10.37,2013-02-11 12:45:00,
2013-02-11 06:50:00,53.9,52.8,30.16,SW,235,1.1,0.0,96,0.00,CLR,,0.03,WeatherDisplay:10.37,2013-02-11 12:50:00,
2013-02-11 06:55:00,53.9,52.8,30.15,SW,235,1.0,0.0,96,0.00,CLR,,0.03,WeatherDisplay:10.37,2013-02-11 12:55:00,
2013-02-11 07:00:00,54.1,53.0,30.15,SW,235,0.0,0.0,96,0.00,CLR,,0.03,WeatherDisplay:10.37,2013-02-11 13:00:00,
2013-02-11 07:05:00,54.1,53.0,30.15,SW,235,0.0,0.0,96,0.00,CLR,,0.03,WeatherDisplay:10.37,2013-02-11 13:05:00,
2013-02-11 07:10:00,53.9,52.8,30.14,SW,235,1.0,0.0,96,0.00,CLR,,0.03,WeatherDisplay:10.37,2013-02-11 13:10:00,
2013-02-11 07:15:00,54.1,53.0,30.14,SW,235,0.0,0.0,96,0.00,CLR,,0.03,WeatherDisplay:10.37,2013-02-11 13:15:00,
2013-02-11 07:20:00,54.1,53.0,30.14,SW,235,0.0,0.0,96,0.00,CLR,,0.03,WeatherDisplay:10.37,2013-02-11 13:20:00,
2013-02-11 07:25:00,53.9,52.8,30.14,SW,235,0.0,0.0,96,0.00,CLR,,0.03,WeatherDisplay:10.37,2013-02-11 13:25:00,
2013-02-11 07:30:00,53.9,52.8,30.15,SW,235,0.0,0.0,96,0.00,CLR,,0.03,WeatherDisplay:10.37,2013-02-11 13:30:00,
2013-02-11 07:35:00,54.1,53.0,30.16,South,190,0.0,0.0,96,0.00,CLR,,0.03,WeatherDisplay:10.37,2013-02-11 13:35:00,
2013-02-11 07:40:00,54.1,53.0,30.16,South,190,0.0,0.0,96,0.00,CLR,,0.03,WeatherDisplay:10.37,2013-02-11 13:40:00,
2013-02-11 07:45:00,54.2,53.1,30.17,South,190,0.0,0.0,96,0.00,CLR,,0.03,WeatherDisplay:10.37,2013-02-11 13:45:00,
2013-02-11 07:50:00,54.2,53.1,30.18,South,190,0.0,0.0,96,0.00,CLR,,0.03,WeatherDisplay:10.37,2013-02-11 13:50:00,
2013-02-11 07:55:00,54.4,53.3,30.18,South,190,1.1,0.0,96,0.00,CLR,,0.03,WeatherDisplay:10.37,2013-02-11 13:55:00,
2013-02-11 08:00:00,54.4,53.3,30.18,South,190,1.1,1.1,96,0.00,CLR,,0.03,WeatherDisplay:10.37,2013-02-11 14:00:00,
2013-02-11 08:05:00,54.5,53.4,30.18,South,190,0.0,0.0,96,0.00,CLR,,0.03,WeatherDisplay:10.37,2013-02-11 14:05:00,
2013-02-11 08:10:00,54.5,53.4,30.17,South,190,0.0,0.0,96,0.00,CLR,,0.03,WeatherDisplay:10.37,2013-02-11 14:10:00,
2013-02-11 08:15:00,54.7,53.6,30.16,South,190,0.0,0.0,96,0.00,CLR,,0.03,WeatherDisplay:10.37,2013-02-11 14:15:00,
2013-02-11 08:20:00,54.8,53.7,30.17,South,190,0.0,0.0,96,0.00,CLR,,0.03,WeatherDisplay:10.37,2013-02-11 14:20:00,
2013-02-11 08:25:00,55.0,53.9,30.18,South,190,0.0,0.0,96,0.00,CLR,,0.03,WeatherDisplay:10.37,2013-02-11 14:25:00,
2013-02-11 08:30:00,55.0,53.9,30.18,South,190,0.0,0.0,96,0.00,CLR,,0.03,WeatherDisplay:10.37,2013-02-11 14:30:00,
2013-02-11 08:35:00,55.1,54.0,30.18,South,191,0.0,0.0,96,0.00,CLR,,0.03,WeatherDisplay:10.37,2013-02-11 14:35:00,
2013-02-11 08:40:00,55.1,54.0,30.19,South,190,0.0,0.0,96,0.00,CLR,,0.03,WeatherDisplay:10.37,2013-02-11 14:40:00,
2013-02-11 08:45:00,55.0,53.9,30.19,South,190,0.0,0.0,96,0.00,CLR,,0.03,WeatherDisplay:10.37,2013-02-11 14:45:00,
2013-02-11 08:50:00,55.1,54.0,30.20,South,190,0.0,0.0,96,0.00,CLR,,0.03,WeatherDisplay:10.37,2013-02-11 14:50:00,
2013-02-11 08:55:00,55.1,54.0,30.20,South,190,0.0,0.0,96,0.00,CLR,,0.03,WeatherDisplay:10.37,2013-02-11 14:55:00,
2013-02-11 09:00:00,55.3,54.2,30.20,South,190,0.0,0.0,96,0.00,CLR,,0.03,WeatherDisplay:10.37,2013-02-11 15:00:00,
2013-02-11 09:05:00,55.3,54.2,30.21,South,190,0.0,0.0,96,0.00,CLR,,0.03,WeatherDisplay:10.37,2013-02-11 15:05:00,
2013-02-11 09:10:00,55.4,54.3,30.21,South,190,0.0,0.0,96,0.00,CLR,,0.03,WeatherDisplay:10.37,2013-02-11 15:10:00,
2013-02-11 09:15:00,55.6,54.5,30.21,South,190,0.0,0.0,96,0.00,CLR,,0.03,WeatherDisplay:10.37,2013-02-11 15:15:00,
2013-02-11 09:20:00,55.6,54.5,30.20,South,190,0.0,0.0,96,0.00,CLR,,0.03,WeatherDisplay:10.37,2013-02-11 15:20:00,
2013-02-11 09:25:00,55.6,54.5,30.21,South,190,0.0,0.0,96,0.00,CLR,,0.03,WeatherDisplay:10.37,2013-02-11 15:25:00,
2013-02-11 09:30:00,55.6,54.5,30.21,South,190,0.0,0.0,96,0.00,CLR,,0.03,WeatherDisplay:10.37,2013-02-11 15:30:00,
2013-02-11 09:36:00,55.6,54.5,30.19,South,190,0.0,0.4,96,0.00,CLR,,0.03,WeatherDisplay:10.37,2013-02-11 15:36:00,
2013-02-11 09:41:00,55.6,54.2,30.19,SW,219,0.0,0.9,95,0.00,CLR,,0.03,WeatherDisplay:10.37,2013-02-11 15:41:00,
2013-02-11 09:46:00,55.6,53.9,30.19,SW,232,0.0,0.0,94,0.00,CLR,,0.03,WeatherDisplay:10.37,2013-02-11 15:46:00,
2013-02-11 09:51:00,55.6,53.6,30.19,SW,232,2.3,2.3,93,0.00,CLR,,0.03,WeatherDisplay:10.37,2013-02-11 15:51:00,
2013-02-11 09:56:00,55.4,52.5,30.19,SW,231,3.0,3.0,90,0.00,CLR,,0.03,WeatherDisplay:10.37,2013-02-11 15:56:00,
2013-02-11 10:01:00,55.3,49.2,30.19,SW,231,0.0,0.0,80,0.00,CLR,,0.03,WeatherDisplay:10.37,2013-02-11 16:01:00,
2013-02-11 10:06:00,55.4,49.7,30.19,SW,231,1.1,0.0,81,0.00,CLR,,0.03,WeatherDisplay:10.37,2013-02-11 16:06:00,
2013-02-11 10:11:00,55.6,49.5,30.19,SW,231,0.0,0.0,80,0.00,CLR,,0.03,WeatherDisplay:10.37,2013-02-11 16:11:00,
2013-02-11 10:16:00,55.9,49.8,30.19,SW,231,0.0,0.0,80,0.00,CLR,,0.03,WeatherDisplay:10.37,2013-02-11 16:16:00,
2013-02-11 10:21:00,55.9,48.4,30.18,SW,231,0.0,0.0,76,0.00,CLR,,0.03,WeatherDisplay:10.37,2013-02-11 16:21:00,
2013-02-11 10:26:00,56.3,49.2,30.18,SW,231,0.0,0.0,77,0.00,CLR,,0.03,WeatherDisplay:10.37,2013-02-11 16:26:00,
2013-02-11 10:31:00,56.6,48.4,30.19,SW,231,0.0,0.0,74,0.00,CLR,,0.03,WeatherDisplay:10.37,2013-02-11 16:31:00,
2013-02-11 10:36:00,56.9,47.6,30.19,SW,231,0.0,0.0,71,0.00,CLR,,0.03,WeatherDisplay:10.37,2013-02-11 16:36:00,
2013-02-11 10:41:00,57.0,46.5,30.19,SSW,197,3.5,3.5,68,0.00,CLR,,0.03,WeatherDisplay:10.37,2013-02-11 16:41:00,
2013-02-11 10:46:00,57.0,44.1,30.19,SE,126,1.1,0.0,62,0.00,CLR,,0.03,WeatherDisplay:10.37,2013-02-11 16:46:00,
2013-02-11 10:51:00,57.3,43.5,30.19,SE,126,0.0,0.0,60,0.00,CLR,,0.03,WeatherDisplay:10.37,2013-02-11 16:51:00,
2013-02-11 10:56:00,57.3,43.5,30.21,SE,134,0.0,0.0,60,0.00,CLR,,0.03,WeatherDisplay:10.37,2013-02-11 16:56:00,
2013-02-11 11:01:00,57.3,43.5,30.22,West,272,0.0,0.0,60,0.00,CLR,,0.03,WeatherDisplay:10.37,2013-02-11 17:01:00,
2013-02-11 11:06:00,57.3,42.6,30.21,West,272,0.0,0.0,58,0.00,CLR,,0.03,WeatherDisplay:10.37,2013-02-11 17:06:00,
2013-02-11 11:11:00,57.2,41.6,30.22,NW,306,0.0,0.0,56,0.00,CLR,,0.03,WeatherDisplay:10.37,2013-02-11 17:11:00,
2013-02-11 11:16:00,57.3,43.5,30.21,WSW,244,5.0,5.0,60,0.00,CLR,,0.03,WeatherDisplay:10.37,2013-02-11 17:16:00,
2013-02-11 11:21:00,57.3,42.2,30.21,SW,230,1.1,0.0,57,0.00,CLR,,0.03,WeatherDisplay:10.37,2013-02-11 17:21:00,
2013-02-11 11:26:00,57.3,42.6,30.21,West,269,0.0,0.3,58,0.00,CLR,,0.03,WeatherDisplay:10.37,2013-02-11 17:26:00,
2013-02-11 11:32:00,57.3,42.6,30.21,SW,223,0.0,0.0,58,0.00,CLR,,0.03,WeatherDisplay:10.37,2013-02-11 17:32:00,
2013-02-11 11:37:00,57.3,42.6,30.21,SSE,163,4.6,4.6,58,0.00,CLR,,0.03,WeatherDisplay:10.37,2013-02-11 17:37:00,
2013-02-11 11:42:00,57.3,41.7,30.21,SW,229,3.5,3.5,56,0.00,CLR,,0.03,WeatherDisplay:10.37,2013-02-11 17:42:00,
2013-02-11 11:47:00,57.3,42.6,30.22,West,268,3.5,3.5,58,0.00,CLR,,0.03,WeatherDisplay:10.37,2013-02-11 17:47:00,
2013-02-11 11:52:00,57.3,42.6,30.23,West,275,1.1,1.1,58,0.00,CLR,,0.03,WeatherDisplay:10.37,2013-02-11 17:52:00,
2013-02-11 11:57:00,57.3,42.6,30.22,SE,128,3.5,3.5,58,0.00,CLR,,0.03,WeatherDisplay:10.37,2013-02-11 17:57:00,
2013-02-11 12:02:00,57.5,42.4,30.21,SE,128,0.0,0.0,57,0.00,CLR,,0.03,WeatherDisplay:10.37,2013-02-11 18:02:00,
2013-02-11 12:07:00,57.5,44.1,30.21,SE,128,0.0,0.0,61,0.00,CLR,,0.03,WeatherDisplay:10.37,2013-02-11 18:07:00,
2013-02-11 12:12:00,57.5,42.4,30.20,SSW,207,1.1,1.1,57,0.00,CLR,,0.03,WeatherDisplay:10.37,2013-02-11 18:12:00,
2013-02-11 12:17:00,57.3,40.8,30.20,SW,214,2.3,2.3,54,0.00,CLR,,0.03,WeatherDisplay:10.37,2013-02-11 18:17:00,
2013-02-11 12:22:00,57.2,40.7,30.20,SW,221,1.1,0.0,54,0.00,CLR,,0.03,WeatherDisplay:10.37,2013-02-11 18:22:00,
2013-02-11 12:27:00,57.0,39.5,30.20,SSW,207,1.1,1.1,52,0.00,CLR,,0.03,WeatherDisplay:10.37,2013-02-11 18:27:00,
2013-02-11 12:32:00,57.0,38.5,30.19,SSW,207,0.0,0.0,50,0.00,CLR,,0.03,WeatherDisplay:10.37,2013-02-11 18:32:00,
2013-02-11 12:37:00,56.9,38.9,30.19,SE,146,4.6,0.0,51,0.00,CLR,,0.03,WeatherDisplay:10.37,2013-02-11 18:37:00,
2013-02-11 12:42:00,56.9,38.9,30.19,SE,146,0.0,0.0,51,0.00,CLR,,0.03,WeatherDisplay:10.37,2013-02-11 18:42:00,
2013-02-11 12:47:00,56.9,39.9,30.19,SW,236,2.3,2.3,53,0.00,CLR,,0.03,WeatherDisplay:10.37,2013-02-11 18:47:00,
2013-02-11 12:52:00,56.7,38.8,30.21,SW,236,0.0,0.0,51,0.00,CLR,,0.03,WeatherDisplay:10.37,2013-02-11 18:52:00,
2013-02-11 12:57:00,56.7,38.8,30.21,SW,236,0.0,0.0,51,0.00,CLR,,0.03,WeatherDisplay:10.37,2013-02-11 18:57:00,
2013-02-11 13:02:00,56.7,39.7,30.20,SW,236,0.0,0.0,53,0.00,CLR,,0.03,WeatherDisplay:10.37,2013-02-11 19:02:00,
2013-02-11 13:07:00,56.7,40.2,30.19,SW,236,0.0,0.0,54,0.00,CLR,,0.03,WeatherDisplay:10.37,2013-02-11 19:07:00,
2013-02-11 13:12:00,56.7,39.7,30.19,NW,315,0.0,0.0,53,0.00,CLR,,0.03,WeatherDisplay:10.37,2013-02-11 19:12:00,
2013-02-11 13:17:00,56.7,40.2,30.21,SSE,155,1.1,0.0,54,0.00,CLR,,0.03,WeatherDisplay:10.37,2013-02-11 19:17:00,
2013-02-11 13:22:00,56.9,40.9,30.20,NNE,31,3.5,3.5,55,0.00,CLR,,0.03,WeatherDisplay:10.37,2013-02-11 19:22:00,
2013-02-11 13:27:00,56.9,36.9,30.20,ESE,104,3.5,3.5,47,0.00,CLR,,0.03,WeatherDisplay:10.37,2013-02-11 19:27:00,
2013-02-11 13:32:00,56.7,37.7,30.19,SE,143,1.1,0.0,49,0.00,CLR,,0.03,WeatherDisplay:10.37,2013-02-11 19:32:00,
2013-02-11 13:37:00,56.9,37.9,30.19,SE,143,0.0,0.0,49,0.00,CLR,,0.03,WeatherDisplay:10.37,2013-02-11 19:37:00,
2013-02-11 13:42:00,56.9,39.4,30.20,NNE,31,3.5,3.5,52,0.00,CLR,,0.03,WeatherDisplay:10.37,2013-02-11 19:42:00,
2013-02-11 13:47:00,57.0,37.5,30.19,NE,35,0.0,0.1,48,0.00,CLR,,0.03,WeatherDisplay:10.37,2013-02-11 19:47:00,
2013-02-11 13:52:00,57.2,38.2,30.19,NE,55,1.1,0.0,49,0.00,CLR,,0.03,WeatherDisplay:10.37,2013-02-11 19:52:00,
2013-02-11 13:57:00,57.3,36.7,30.19,NE,55,1.1,0.0,46,0.00,CLR,,0.03,WeatherDisplay:10.37,2013-02-11 19:57:00,
2013-02-11 14:02:00,57.3,37.2,30.19,NE,55,0.0,0.0,47,0.00,CLR,,0.03,WeatherDisplay:10.37,2013-02-11 20:02:00,
2013-02-11 14:07:00,57.5,37.9,30.19,NE,55,1.1,0.0,48,0.00,CLR,,0.03,WeatherDisplay:10.37,2013-02-11 20:07:00,
2013-02-11 14:12:00,57.3,36.1,30.20,WSW,240,3.5,3.5,45,0.00,CLR,,0.03,WeatherDisplay:10.37,2013-02-11 20:12:00,
2013-02-11 14:17:00,57.2,36.6,30.19,WSW,240,0.0,0.0,46,0.00,CLR,,0.03,WeatherDisplay:10.37,2013-02-11 20:17:00,
2013-02-11 14:23:00,56.9,36.9,30.19,SSW,200,0.0,0.0,47,0.00,CLR,,0.03,WeatherDisplay:10.37,2013-02-11 20:23:00,
2013-02-11 14:28:00,56.7,37.7,30.20,SW,220,0.0,0.0,49,0.00,CLR,,0.03,WeatherDisplay:10.37,2013-02-11 20:28:00,
2013-02-11 14:33:00,56.6,36.0,30.19,SW,220,0.0,0.0,46,0.00,CLR,,0.03,WeatherDisplay:10.37,2013-02-11 20:33:00,
2013-02-11 14:38:00,56.6,38.2,30.19,SW,220,0.0,0.0,50,0.00,CLR,,0.03,WeatherDisplay:10.37,2013-02-11 20:38:00,
2013-02-11 14:43:00,56.6,39.2,30.19,SW,220,0.0,0.0,52,0.00,CLR,,0.03,WeatherDisplay:10.37,2013-02-11 20:43:00,
2013-02-11 14:48:00,56.5,34.8,30.19,SW,217,2.3,2.3,44,0.00,CLR,,0.03,WeatherDisplay:10.37,2013-02-11 20:48:00,
2013-02-11 14:53:00,56.5,35.4,30.19,SSE,160,3.5,3.5,45,0.00,CLR,,0.03,WeatherDisplay:10.37,2013-02-11 20:53:00,
2013-02-11 14:58:00,56.3,35.8,30.19,SSE,161,0.0,0.0,46,0.00,CLR,,0.03,WeatherDisplay:10.37,2013-02-11 20:58:00,
2013-02-11 15:03:00,56.3,34.6,30.19,SSE,149,0.0,0.0,44,0.00,CLR,,0.03,WeatherDisplay:10.37,2013-02-11 21:03:00,
2013-02-11 15:08:00,56.3,35.8,30.19,SSE,149,0.0,0.0,46,0.00,CLR,,0.03,WeatherDisplay:10.37,2013-02-11 21:08:00,
2013-02-11 15:13:00,56.5,36.0,30.19,SSE,149,0.0,0.0,46,0.00,CLR,,0.03,WeatherDisplay:10.37,2013-02-11 21:13:00,
2013-02-11 15:18:00,56.5,37.6,30.19,SSE,149,0.0,0.0,49,0.00,CLR,,0.03,WeatherDisplay:10.37,2013-02-11 21:18:00,
2013-02-11 15:23:00,56.6,37.6,30.19,SSE,149,0.0,0.0,49,0.00,CLR,,0.03,WeatherDisplay:10.37,2013-02-11 21:23:00,
2013-02-11 15:28:00,56.6,37.1,30.18,SSE,149,0.0,0.0,48,0.00,CLR,,0.03,WeatherDisplay:10.37,2013-02-11 21:28:00,
2013-02-11 15:33:00,56.5,36.5,30.18,SSE,149,0.0,0.0,47,0.00,CLR,,0.03,WeatherDisplay:10.37,2013-02-11 21:33:00,
2013-02-11 15:38:00,56.5,37.6,30.19,SSE,149,0.0,0.0,49,0.00,CLR,,0.03,WeatherDisplay:10.37,2013-02-11 21:38:00,
2013-02-11 15:43:00,56.5,35.4,30.19,SSW,210,0.0,0.0,45,0.00,CLR,,0.03,WeatherDisplay:10.37,2013-02-11 21:43:00,
2013-02-11 15:48:00,56.5,36.0,30.19,SSW,209,0.0,0.0,46,0.00,CLR,,0.03,WeatherDisplay:10.37,2013-02-11 21:48:00,
2013-02-11 15:53:00,56.3,37.4,30.19,SSW,210,0.0,0.0,49,0.00,CLR,,0.03,WeatherDisplay:10.37,2013-02-11 21:53:00,
2013-02-11 15:58:00,56.2,37.3,30.18,SSW,209,0.0,0.0,49,0.00,CLR,,0.03,WeatherDisplay:10.37,2013-02-11 21:58:00,
2013-02-11 16:03:00,56.2,36.2,30.18,SW,221,0.0,0.0,47,0.00,CLR,,0.03,WeatherDisplay:10.37,2013-02-11 22:03:00,
2013-02-11 16:08:00,56.0,36.6,30.18,SW,221,0.0,0.0,48,0.00,CLR,,0.03,WeatherDisplay:10.37,2013-02-11 22:08:00,
2013-02-11 16:13:00,55.9,34.8,30.18,WSW,238,0.0,0.0,45,0.00,CLR,,0.03,WeatherDisplay:10.37,2013-02-11 22:13:00,
2013-02-11 16:18:00,55.7,35.8,30.18,WSW,238,0.0,0.0,47,0.00,CLR,,0.03,WeatherDisplay:10.37,2013-02-11 22:18:00,
2013-02-11 16:23:00,55.6,33.4,30.18,WSW,238,0.0,0.0,43,0.00,CLR,,0.03,WeatherDisplay:10.37,2013-02-11 22:23:00,
2013-02-11 16:28:00,55.3,32.0,30.18,North,360,1.1,0.0,41,0.00,CLR,,0.03,WeatherDisplay:10.37,2013-02-11 22:28:00,
2013-02-11 16:33:00,55.0,31.7,30.19,NNW,334,1.1,1.1,41,0.00,CLR,,0.03,WeatherDisplay:10.37,2013-02-11 22:33:00,
2013-02-11 16:38:00,54.8,31.5,30.18,NNW,334,0.0,0.0,41,0.00,CLR,,0.03,WeatherDisplay:10.37,2013-02-11 22:38:00,
2013-02-11 16:43:00,54.7,34.8,30.18,NNW,334,0.0,0.0,47,0.00,CLR,,0.03,WeatherDisplay:10.37,2013-02-11 22:43:00,
2013-02-11 16:48:00,54.4,32.9,30.19,NNW,334,0.0,0.0,44,0.00,CLR,,0.03,WeatherDisplay:10.37,2013-02-11 22:48:00,
2013-02-11 16:53:00,54.2,34.9,30.19,NNW,334,0.0,0.0,48,0.00,CLR,,0.03,WeatherDisplay:10.37,2013-02-11 22:53:00,
2013-02-11 16:58:00,53.9,34.1,30.19,NNW,334,0.0,0.0,47,0.00,CLR,,0.03,WeatherDisplay:10.37,2013-02-11 22:58:00,
2013-02-11 17:03:00,53.6,32.8,30.19,NNW,334,0.0,0.0,45,0.00,CLR,,0.03,WeatherDisplay:10.37,2013-02-11 23:03:00,
2013-02-11 17:08:00,53.3,38.4,30.19,NNW,334,0.0,0.0,57,0.00,CLR,,0.03,WeatherDisplay:10.37,2013-02-11 23:08:00,
2013-02-11 17:13:00,53.1,39.6,30.19,NNW,334,0.0,0.0,60,0.00,CLR,,0.03,WeatherDisplay:10.37,2013-02-11 23:13:00,
2013-02-11 17:18:00,52.5,39.4,30.19,NNW,334,0.0,0.0,61,0.00,CLR,,0.03,WeatherDisplay:10.37,2013-02-11 23:18:00,
2013-02-11 17:23:00,51.9,39.3,30.18,NNW,334,0.0,0.0,62,0.00,CLR,,0.03,WeatherDisplay:10.37,2013-02-11 23:23:00,
2013-02-11 17:28:00,51.4,39.2,30.18,NNW,334,0.0,0.0,63,0.00,CLR,,0.03,WeatherDisplay:10.37,2013-02-11 23:28:00,
2013-02-11 17:33:00,51.0,38.4,30.18,NNW,334,0.0,0.0,62,0.00,CLR,,0.03,WeatherDisplay:10.37,2013-02-11 23:33:00,
2013-02-11 17:38:00,50.5,38.8,30.19,NNW,334,0.0,0.0,64,0.00,CLR,,0.03,WeatherDisplay:10.37,2013-02-11 23:38:00,
2013-02-11 17:43:00,50.2,38.5,30.19,NNW,334,0.0,0.0,64,0.00,CLR,,0.03,WeatherDisplay:10.37,2013-02-11 23:43:00,
2013-02-11 17:48:00,49.9,39.0,30.20,NNW,334,0.0,0.0,66,0.00,CLR,,0.03,WeatherDisplay:10.37,2013-02-11 23:48:00,
2013-02-11 17:53:00,49.8,39.7,30.20,NNW,334,0.0,0.0,68,0.00,CLR,,0.03,WeatherDisplay:10.37,2013-02-11 23:53:00,
2013-02-11 17:58:00,49.5,39.7,30.20,NNW,334,0.0,0.0,69,0.00,CLR,,0.03,WeatherDisplay:10.37,2013-02-11 23:58:00,
2013-02-11 18:03:00,49.2,39.5,30.20,NNW,334,0.0,0.0,69,0.00,CLR,,0.03,WeatherDisplay:10.37,2013-02-12 00:03:00,
2013-02-11 18:08:00,48.9,38.8,30.20,NNW,334,0.0,0.0,68,0.00,CLR,,0.03,WeatherDisplay:10.37,2013-02-12 00:08:00,
2013-02-11 18:13:00,48.6,38.9,30.20,NNW,334,0.0,0.0,69,0.00,CLR,,0.03,WeatherDisplay:10.37,2013-02-12 00:13:00,
2013-02-11 18:18:00,48.5,38.4,30.21,NNW,334,0.0,0.0,68,0.00,CLR,,0.03,WeatherDisplay:10.37,2013-02-12 00:18:00,
2013-02-11 18:23:00,48.3,39.0,30.22,NNW,334,0.0,0.0,70,0.00,CLR,,0.03,WeatherDisplay:10.37,2013-02-12 00:23:00,
2013-02-11 18:28:00,48.2,39.2,30.21,NNW,334,0.0,0.0,71,0.00,CLR,,0.03,WeatherDisplay:10.37,2013-02-12 00:28:00,
2013-02-11 18:33:00,47.9,39.3,30.21,NNW,334,0.0,0.0,72,0.00,CLR,,0.03,WeatherDisplay:10.37,2013-02-12 00:33:00,
2013-02-11 18:38:00,47.7,39.5,30.21,NNW,334,0.0,0.0,73,0.00,CLR,,0.03,WeatherDisplay:10.37,2013-02-12 00:38:00,
2013-02-11 18:43:00,47.4,39.2,30.22,NNW,334,0.0,0.0,73,0.00,CLR,,0.03,WeatherDisplay:10.37,2013-02-12 00:43:00,
2013-02-11 18:48:00,47.1,39.2,30.21,NNW,334,0.0,0.0,74,0.00,CLR,,0.03,WeatherDisplay:10.37,2013-02-12 00:48:00,
2013-02-11 18:53:00,47.0,39.1,30.20,NNW,334,0.0,0.0,74,0.00,CLR,,0.03,WeatherDisplay:10.37,2013-02-12 00:53:00,
2013-02-11 18:58:00,46.7,38.9,30.20,NNW,334,0.0,0.0,74,0.00,CLR,,0.03,WeatherDisplay:10.37,2013-02-12 00:58:00,
2013-02-11 19:03:00,46.4,38.2,30.21,NNW,334,0.0,0.0,73,0.00,CLR,,0.03,WeatherDisplay:10.37,2013-02-12 01:03:00,
2013-02-11 19:08:00,46.1,37.9,30.22,NNW,334,0.0,0.0,73,0.00,CLR,,0.03,WeatherDisplay:10.37,2013-02-12 01:08:00,
2013-02-11 19:13:00,45.8,37.6,30.22,NNW,334,0.0,0.0,73,0.00,CLR,,0.03,WeatherDisplay:10.37,2013-02-12 01:13:00,
2013-02-11 19:18:00,45.7,37.9,30.21,NNW,334,0.0,0.0,74,0.00,CLR,,0.03,WeatherDisplay:10.37,2013-02-12 01:18:00,
2013-02-11 19:23:00,45.5,38.0,30.21,NNW,334,0.0,0.0,75,0.00,CLR,,0.03,WeatherDisplay:10.37,2013-02-12 01:23:00,
2013-02-11 19:28:00,45.4,37.9,30.21,NNW,334,0.0,0.0,75,0.00,CLR,,0.03,WeatherDisplay:10.37,2013-02-12 01:28:00,
2013-02-11 19:33:00,45.2,37.7,30.20,NNW,334,0.0,0.0,75,0.00,CLR,,0.03,WeatherDisplay:10.37,2013-02-12 01:33:00,
2013-02-11 19:38:00,45.1,38.0,30.20,NNW,334,0.0,0.0,76,0.00,CLR,,0.03,WeatherDisplay:10.37,2013-02-12 01:38:00,
2013-02-11 19:43:00,44.9,37.8,30.20,NNW,334,0.0,0.0,76,0.00,CLR,,0.03,WeatherDisplay:10.37,2013-02-12 01:43:00,
2013-02-11 19:48:00,44.8,37.4,30.20,NNW,334,0.0,0.0,75,0.00,CLR,,0.03,WeatherDisplay:10.37,2013-02-12 01:48:00,
2013-02-11 19:53:00,44.6,37.2,30.20,NNW,334,0.0,0.0,75,0.00,CLR,,0.03,WeatherDisplay:10.37,2013-02-12 01:53:00,
2013-02-11 19:58:00,44.5,37.4,30.21,NNW,334,0.0,0.0,76,0.00,CLR,,0.03,WeatherDisplay:10.37,2013-02-12 01:58:00,
2013-02-11 20:03:00,44.3,38.2,30.22,NNW,334,0.0,0.0,79,0.00,CLR,,0.03,WeatherDisplay:10.37,2013-02-12 02:03:00,
2013-02-11 20:08:00,44.2,38.4,30.23,NNW,334,0.0,0.0,80,0.00,CLR,,0.03,WeatherDisplay:10.37,2013-02-12 02:08:00,
2013-02-11 20:13:00,44.2,38.4,30.24,NNW,334,0.0,0.0,80,0.00,CLR,,0.03,WeatherDisplay:10.37,2013-02-12 02:13:00,
2013-02-11 20:18:00,44.1,38.3,30.24,NNW,334,0.0,0.0,80,0.00,CLR,,0.03,WeatherDisplay:10.37,2013-02-12 02:18:00,
2013-02-11 20:23:00,43.9,38.1,30.24,NNW,334,0.0,0.0,80,0.00,CLR,,0.03,WeatherDisplay:10.37,2013-02-12 02:23:00,
2013-02-11 20:28:00,43.9,38.1,30.23,NNW,334,0.0,0.0,80,0.00,CLR,,0.03,WeatherDisplay:10.37,2013-02-12 02:28:00,
2013-02-11 20:33:00,43.9,38.1,30.23,NNW,334,0.0,0.0,80,0.00,CLR,,0.03,WeatherDisplay:10.37,2013-02-12 02:33:00,
2013-02-11 20:38:00,43.9,38.1,30.23,NNW,334,0.0,0.0,80,0.00,CLR,,0.03,WeatherDisplay:10.37,2013-02-12 02:38:00,
2013-02-11 20:43:00,44.1,38.3,30.22,NNW,334,0.0,0.0,80,0.00,CLR,,0.03,WeatherDisplay:10.37,2013-02-12 02:43:00,
2013-02-11 20:48:00,44.1,38.6,30.22,NNW,334,0.0,0.0,81,0.00,CLR,,0.03,WeatherDisplay:10.37,2013-02-12 02:48:00,
2013-02-11 20:53:00,43.9,38.4,30.21,NNW,334,0.0,0.0,81,0.00,CLR,,0.03,WeatherDisplay:10.37,2013-02-12 02:53:00,
2013-02-11 20:58:00,43.9,38.1,30.21,NNW,334,0.0,0.0,80,0.00,CLR,,0.03,WeatherDisplay:10.37,2013-02-12 02:58:00,
2013-02-11 21:03:00,43.9,38.1,30.21,NNW,334,0.0,0.0,80,0.00,CLR,,0.03,WeatherDisplay:10.37,2013-02-12 03:03:00,
2013-02-11 21:08:00,43.8,37.1,30.22,NNW,334,0.0,0.0,77,0.00,CLR,,0.03,WeatherDisplay:10.37,2013-02-12 03:08:00,
2013-02-11 21:13:00,43.6,36.5,30.22,NNW,334,0.0,0.0,76,0.00,CLR,,0.03,WeatherDisplay:10.37,2013-02-12 03:13:00,
2013-02-11 21:18:00,43.6,37.2,30.24,NNW,334,0.0,0.0,78,0.00,CLR,,0.03,WeatherDisplay:10.37,2013-02-12 03:18:00,
2013-02-11 21:23:00,43.8,38.0,30.26,NNW,334,0.0,0.0,80,0.00,CLR,,0.03,WeatherDisplay:10.37,2013-02-12 03:23:00,
2013-02-11 21:28:00,43.8,38.3,30.27,NNW,334,0.0,0.0,81,0.00,CLR,,0.03,WeatherDisplay:10.37,2013-02-12 03:28:00,
2013-02-11 21:33:00,44.1,38.6,30.27,North,10,4.6,4.6,81,0.00,CLR,,0.03,WeatherDisplay:10.37,2013-02-12 03:33:00,
2013-02-11 21:38:00,44.5,37.4,30.25,North,10,1.1,0.0,76,0.00,CLR,,0.03,WeatherDisplay:10.37,2013-02-12 03:38:00,
2013-02-11 21:43:00,44.6,37.2,30.25,North,10,3.5,0.0,75,0.00,CLR,,0.03,WeatherDisplay:10.37,2013-02-12 03:43:00,
2013-02-11 21:48:00,44.8,36.7,30.25,NNE,22,1.1,1.1,73,0.00,CLR,,0.03,WeatherDisplay:10.37,2013-02-12 03:48:00,
2013-02-11 21:53:00,45.7,36.5,30.24,NNE,26,1.1,0.0,70,0.00,CLR,,0.03,WeatherDisplay:10.37,2013-02-12 03:53:00,
2013-02-11 21:59:00,45.4,36.2,30.22,NNE,26,1.1,0.0,70,0.00,CLR,,0.03,WeatherDisplay:10.37,2013-02-12 03:59:00,
2013-02-11 22:04:00,45.2,36.7,30.22,NNE,26,0.0,0.0,72,0.00,CLR,,0.03,WeatherDisplay:10.37,2013-02-12 04:04:00,
2013-02-11 22:09:00,44.9,36.8,30.21,NNE,26,0.0,0.0,73,0.00,CLR,,0.03,WeatherDisplay:10.37,2013-02-12 04:09:00,
2013-02-11 22:14:00,44.5,36.7,30.21,NNE,26,0.0,0.0,74,0.00,CLR,,0.03,WeatherDisplay:10.37,2013-02-12 04:14:00,
2013-02-11 22:19:00,44.1,36.3,30.22,NNE,26,0.0,0.0,74,0.00,CLR,,0.03,WeatherDisplay:10.37,2013-02-12 04:19:00,
2013-02-11 22:24:00,43.9,36.1,30.22,NNE,26,0.0,0.0,74,0.00,CLR,,0.03,WeatherDisplay:10.37,2013-02-12 04:24:00,
2013-02-11 22:29:00,43.8,36.7,30.23,NNE,26,0.0,0.0,76,0.00,CLR,,0.03,WeatherDisplay:10.37,2013-02-12 04:29:00,
2013-02-11 22:34:00,43.6,36.5,30.22,NNE,26,0.0,0.0,76,0.00,CLR,,0.03,WeatherDisplay:10.37,2013-02-12 04:34:00,
2013-02-11 22:39:00,43.6,37.2,30.23,NNE,26,0.0,0.0,78,0.00,CLR,,0.03,WeatherDisplay:10.37,2013-02-12 04:39:00,
2013-02-11 22:44:00,43.5,37.4,30.23,NNE,26,0.0,0.0,79,0.00,CLR,,0.03,WeatherDisplay:10.37,2013-02-12 04:44:00,
2013-02-11 22:49:00,43.5,37.4,30.23,NNE,26,0.0,0.0,79,0.00,CLR,,0.03,WeatherDisplay:10.37,2013-02-12 04:49:00,
2013-02-11 22:54:00,43.3,37.5,30.24,NNE,26,0.0,0.0,80,0.00,CLR,,0.03,WeatherDisplay:10.37,2013-02-12 04:54:00,
2013-02-11 22:59:00,43.2,37.4,30.25,NNE,26,0.0,0.0,80,0.00,CLR,,0.03,WeatherDisplay:10.37,2013-02-12 04:59:00,
2013-02-11 23:00:00,43.2,37.4,30.24,NNE,26,0.0,0.0,80,0.00,CLR,,0.03,WeatherDisplay:10.37,2013-02-12 05:00:00,
2013-02-11 23:01:00,43.1,37.0,30.24,NNE,26,0.0,0.0,79,0.00,CLR,,0.03,WeatherDisplay:10.37,2013-02-12 05:01:00,
2013-02-11 23:06:00,42.9,37.2,30.24,NNE,26,0.0,0.0,80,0.00,CLR,,0.03,WeatherDisplay:10.37,2013-02-12 05:06:00,
2013-02-11 23:11:00,42.9,37.5,30.24,NNE,26,0.0,0.0,81,0.00,CLR,,0.03,WeatherDisplay:10.37,2013-02-12 05:11:00,
2013-02-11 23:16:00,42.8,37.4,30.25,NNE,26,0.0,0.0,81,0.00,CLR,,0.03,WeatherDisplay:10.37,2013-02-12 05:16:00,
2013-02-11 23:21:00,42.8,37.4,30.25,NNE,26,0.0,0.0,81,0.00,CLR,,0.03,WeatherDisplay:10.37,2013-02-12 05:21:00,
2013-02-11 23:26:00,42.6,37.2,30.24,NNE,26,0.0,0.0,81,0.00,CLR,,0.03,WeatherDisplay:10.37,2013-02-12 05:26:00,
2013-02-11 23:31:00,42.6,37.5,30.24,NNE,26,0.0,0.0,82,0.00,CLR,,0.03,WeatherDisplay:10.37,2013-02-12 05:31:00,
2013-02-11 23:36:00,42.6,37.5,30.24,NNE,26,0.0,0.0,82,0.00,CLR,,0.03,WeatherDisplay:10.37,2013-02-12 05:36:00,
2013-02-11 23:41:00,42.6,37.5,30.23,NNE,26,0.0,0.0,82,0.00,CLR,,0.03,WeatherDisplay:10.37,2013-02-12 05:41:00,
2013-02-11 23:46:00,42.5,37.4,30.24,NNE,26,0.0,0.0,82,0.00,CLR,,0.03,WeatherDisplay:10.37,2013-02-12 05:46:00,
2013-02-11 23:51:00,42.3,37.5,30.24,NNE,26,0.0,0.0,83,0.00,CLR,,0.03,WeatherDisplay:10.37,2013-02-12 05:51:00,
2013-02-11 23:56:00,42.3,37.5,30.25,NNE,26,0.0,0.0,83,0.00,CLR,,0.03,WeatherDisplay:10.37,2013-02-12 05:56:00,